Weather History for Hyannis, MA

Change the Weather History Date:

Thursday, December 6, 2012

  Actual Average Record
Temperature  
Mean Temperature 29 °F -  
Max Temperature 37 °F 42 °F 63 °F (2001)
Min Temperature 21 °F 26 °F 9 °F (1976)
Degree Days  
Heating Degree Days 36    
Moisture  
Dew Point 22 °F    
Average Humidity 68    
Maximum Humidity 92    
Minimum Humidity 54    
Precipitation  
Precipitation 0.00 in - - ()
Sea Level Pressure  
Sea Level Pressure 30.25 in    
Wind  
Wind Speed 10 mph (NNW)    
Max Wind Speed 16 mph    
Max Gust Speed 24 mph    
Visibility 10 miles    
Events      
Averages and records for this station are not official NWS values.
T = Trace of Precipitation, MM = Missing Value Source: NWS Daily Summary

Daily Weather History Graph

Daily Weather History Graph

Search for Another Location

Airport:

Trip Planner

Search our weather history database for the weather conditions in past years. The results will help you decide how hot, cold, wet, or windy it might be!

Date:

Astronomy

Dec. 06, 2012 Rise Set
Actual Time 6:54 AM EST 4:10 PM EST
Civil Twilight 6:22 AM EST 4:41 PM EST
Nautical Twilight 5:48 AM EST 5:16 PM EST
Astronomical Twilight 5:14 AM EST 5:50 PM EST
Moon No Moon Rise 11:40 AM EST (12/6)
Length of Visible Light 10h 19m
Length of Day
9h 16m
Waning Gibbous, 49% of the Moon is Illuminated
Dec 6
Waning Gibbous
Dec 13
New
Dec 20
First Quarter
Dec 28
Full
Jan 4
Last Quarter

Hourly Weather History & Observations

Time (EST) Temp. Windchill Dew Point Humidity Pressure Visibility Wind Dir Wind Speed Gust Speed Precip Events Conditions
12:56 AM 36.0 °F 26.3 °F 21.0 °F 55% 30.09 in 10.0 mi North 16.1 mph 23.0 mph N/A   Scattered Clouds
1:56 AM 34.0 °F 24.6 °F 19.0 °F 54% 30.14 in 10.0 mi NW 13.8 mph 24.2 mph N/A   Partly Cloudy
2:56 AM 34.0 °F 25.5 °F 19.9 °F 56% 30.14 in 10.0 mi NNW 11.5 mph 23.0 mph N/A   Overcast
3:56 AM 33.1 °F 23.4 °F 21.0 °F 61% 30.13 in 10.0 mi NNW 13.8 mph 21.9 mph N/A   Overcast
4:56 AM 34.0 °F 27.2 °F 21.9 °F 61% 30.17 in 10.0 mi NW 8.1 mph 20.7 mph N/A   Overcast
5:56 AM 33.1 °F 24.4 °F 21.9 °F 64% 30.20 in 10.0 mi NNW 11.5 mph 21.9 mph N/A   Overcast
6:56 AM 34.0 °F 26.0 °F 21.9 °F 61% 30.24 in 10.0 mi NNW 10.4 mph 20.7 mph N/A   Overcast
7:56 AM 34.0 °F 25.0 °F 23.0 °F 64% 30.25 in 10.0 mi NNW 12.7 mph 18.4 mph N/A   Overcast
8:56 AM 35.1 °F 27.4 °F 23.0 °F 61% 30.26 in 10.0 mi North 10.4 mph 19.6 mph N/A   Overcast
9:32 AM 35.6 °F 26.6 °F 24.8 °F 65% 30.27 in 10.0 mi North 13.8 mph 24.2 mph N/A   Overcast
9:56 AM 36.0 °F 28.5 °F 24.1 °F 62% 30.28 in 10.0 mi North 10.4 mph 19.6 mph N/A   Mostly Cloudy
10:43 AM 37.4 °F 29.8 °F 24.8 °F 60% 30.27 in 10.0 mi North 11.5 mph 19.6 mph N/A   Scattered Clouds
10:56 AM 37.0 °F 28.5 °F 24.1 °F 59% 30.26 in 10.0 mi North 13.8 mph 18.4 mph N/A   Scattered Clouds
11:56 AM 37.9 °F 30.9 °F 25.0 °F 60% 30.26 in 10.0 mi North 10.4 mph 17.3 mph N/A   Scattered Clouds
12:56 PM 37.9 °F 30.9 °F 24.1 °F 57% 30.24 in 10.0 mi NNW 10.4 mph - N/A   Clear
1:56 PM 37.9 °F 32.7 °F 25.0 °F 60% 30.25 in 10.0 mi Variable 6.9 mph - N/A   Clear
2:56 PM 37.9 °F 32.7 °F 25.0 °F 60% 30.27 in 10.0 mi North 6.9 mph - N/A   Clear
3:56 PM 36.0 °F 33.3 °F 24.1 °F 62% 30.29 in 10.0 mi NNW 3.5 mph - N/A   Clear
4:56 PM 28.9 °F - 21.9 °F 75% 30.30 in 10.0 mi Calm Calm - N/A   Clear
5:56 PM 27.0 °F - 19.9 °F 75% 30.30 in 10.0 mi Calm Calm - N/A   Clear
6:56 PM 25.0 °F - 21.0 °F 85% 30.30 in 10.0 mi Calm Calm - N/A   Clear
7:56 PM 23.0 °F - 19.9 °F 88% 30.30 in 10.0 mi Calm Calm - N/A   Clear
8:56 PM 21.9 °F - 19.0 °F 89% 30.30 in 10.0 mi Calm Calm - N/A   Clear
9:56 PM 21.0 °F - 18.0 °F 88% 30.31 in 10.0 mi Calm Calm - N/A   Clear
10:56 PM 21.9 °F - 19.0 °F 89% 30.31 in 10.0 mi Calm Calm - N/A   Clear
11:56 PM 21.0 °F - 19.0 °F 92% 30.31 in 10.0 mi Calm Calm - N/A   Clear